User: anonymous   Login
Location: Austin
(30.3000°N, 97.7500°W)
Time: 10:39:37
(UTC-05:00)
Language:

Cosmos 1763 Rocket - Orbit

View from above orbital plane
View from above orbital plane
View from above satellite
View from above satellite

Ground track
Ground track

The orbit data is extracted from the following two-line orbital elements,

1 16864U 86052B   23265.85815123  .00000616  00000-0  19843-3 0  9998
2 16864  74.0306 178.7558 0031512  74.5523 285.9109 14.41083097952249
Epoch (UTC): 22 September 2023 20:35:44
Eccentricity: 0.0031512
inclination: 74.0306°
perigee height: 732 km
apogee height: 777 km
right ascension of ascending node: 178.7558°
argument of perigee: 74.5523°
revolutions per day: 14.41083097
mean anomaly at epoch: 285.9109°
orbit number at epoch: 95224

The dashed part of the orbit path shows where the satellite is in the earth's shadow,  

DLR